Location: Santa Maria di Sala
(45.5070°N, 12.0300°E)
Time: 08:45:37
(UTC+02:00)

STRAND 1 - Pass Details

Date: 27 February 2024
Orbit: 764 x 779 km, 98.4° (Epoch: 16 April)

Event Time Altitude Azimuth Distance (km) Brightness Sun altitude
Rises 06:06:38 0° 177° (S) 3,247 ? -9.2°
Reaches altitude 10° 06:08:59 10° 181° (S) 2,325 ? -8.8°
Maximum altitude 06:14:01 55° 260° (W) 931 ? -7.9°
Drops below altitude 10° 06:19:05 10° 338° (NNW) 2,342 ? -7.1°
Sets 06:21:28 0° 343° (NNW) 3,274 ? -6.6°
